This demonstration page uses our WeatherBlox Daily Observations layout. Learn more.

Left ArrowRight Arrow

39.92423, -83.80882

Hourly Observations for September 23, 2021

Temp ( °F °C ) Dew Point ( °F °C ) Humidity (%) Winds ( mph kmh ) Pressure ( in mb ) Visibility ( mi km ) Precip ( " mm )
12:56 am 00:56 Cloudy with Light Rain 52 11 N/A N/A NW 13 20 29.86 1011 7 11 0.01 0.25
1:12 am 01:12 Cloudy with Light Rain 52 11 N/A N/A WNW 10 17 29.86 1011 6 10 0.01 0.25
1:56 am 01:56 Cloudy with Light Rain 50 10 N/A N/A W 13 20 29.86 1011 9 14 0.03 0.76
2:33 am 02:33 Cloudy with Rain 50 10 N/A N/A W 12 19 29.86 1011 3 5 0.03 0.76
2:48 am 02:48 Cloudy with Light Rain 50 10 N/A N/A W 12 19 29.85 1011 4 6 0.04 1.02
2:56 am 02:56 Cloudy with Light Rain 50 10 N/A N/A W 12 19 29.85 1011 5 8 0.04 1.02
3:56 am 03:56 Cloudy with Light Rain 50 10 N/A N/A W 15 24 29.84 1010 10 16 0.09 2.29
4:53 am 04:53 Cloudy 50 10 50 10 100 100 W 18 30 29.84 1011 10 16 0.00 0.00
4:56 am 04:56 Cloudy 50 10 50 10 100 100 W 17 28 29.84 1010 10 16 0.00 0.00
5:16 am 05:16 Cloudy 48 9 48 9 100 100 W 16 26 29.85 1011 10 16 N/A
5:56 am 05:56 Cloudy 49 9.4 49 9.4 100 100 WNW 20 31 29.85 1011 10 16 N/A
6:53 am 06:53 Cloudy 48 9 46 8 94 94 W 20 31 29.87 1011 10 16 N/A
6:56 am 06:56 Cloudy 48 8.9 47 8.3 96 96 W 16 26 29.86 1011 10 16 N/A
7:41 am 07:41 Cloudy with Light Rain 48 9 48 9 100 100 W 21 33 29.88 1012 10 16 0.00 0.00
7:56 am 07:56 Cloudy with Light Rain 48 8.9 48 8.9 100 100 W 17 28 29.88 1012 10 16 0.00 0.00
8:56 am 08:56 Cloudy with Light Rain 49 9.4 49 9.4 100 100 W 21 33 29.90 1012 10 16 0.01 0.25
9:56 am 09:56 Cloudy 51 10.6 50 10 96 96 W 15 24 29.91 1013 10 16 0.00 0.00
10:56 am 10:56 Cloudy 54 12.2 46 7.8 75 75 WNW 23 37 29.92 1013 10 16 N/A
11:56 am 11:56 Mostly Sunny 57 13.9 48 8.9 72 72 WNW 18 30 29.91 1013 10 16 N/A
12:56 pm 12:56 Mostly Cloudy 57 13.9 48 8.9 72 72 W 24 39 29.92 1013 10 16 N/A
1:56 pm 13:56 Mostly Sunny 60 15.6 47 8.3 62 62 W 24 39 29.92 1013 10 16 N/A
2:56 pm 14:56 Mostly Cloudy 60 15.6 45 7.2 58 58 W 23 37 29.92 1013 10 16 N/A
3:56 pm 15:56 Cloudy 57 13.9 45 7.2 64 64 W 22 35 29.93 1014 10 16 N/A
4:56 pm 16:56 Cloudy 59 15 46 7.8 62 62 W 15 24 29.94 1014 10 16 N/A
5:56 pm 17:56 Cloudy 58 14.4 47 8.3 67 67 W 13 20 29.96 1014 10 16 N/A
6:56 pm 18:56 Cloudy 58 14.4 48 8.9 70 70 W 6 9 29.98 1015 10 16 N/A
7:56 pm 19:56 Cloudy 56 13.3 49 9.4 77 77 NW 9 15 29.99 1016 10 16 N/A
8:56 pm 20:56 Cloudy 56 13.3 50 10 81 81 NW 5 7 30.01 1016 10 16 N/A
9:56 pm 21:56 Cloudy 55 12.8 50 10 83 83 W 5 7 30.03 1017 10 16 N/A
10:56 pm 22:56 Clear 50 10 50 10 100 100 SW 5 7 30.03 1017 10 16 N/A
11:56 pm 23:56 Clear 49 9.4 49 9.4 100 100 SSW 6 9 30.03 1017 10 16 N/A

Powered by AerisWeather